Location: Julian California
(33.0790°N, 116.6010°W)
Time: 07:39:07
(UTC-07:00)

Hubble Space Telescope - Pass Details

Date: 14 June 2018
Orbit: 537 x 541 km, 28.5° (Epoch: 22 September)

Event Time Altitude Azimuth Distance (km) Brightness Sun altitude
Rises 21:40:30 0° 259° (WSW) 2,667 4.8 -18.2°
Reaches altitude 10° 21:42:50 10° 252° (WSW) 1,776 3.7 -18.6°
Maximum altitude 21:46:44 44° 180° (S) 744 1.1 -19.1°
Enters shadow 21:46:48 44° 178° (S) 744 1.1 -19.2°
